This demonstration page uses our WeatherBlox Daily Observations layout. Learn more.

Left ArrowRight Arrow

53.62937, 11.41316

Hourly Observations for November 12, 2022

Temp ( °F °C ) Dew Point ( °F °C ) Humidity (%) Winds ( mph kmh ) Pressure ( in mb ) Visibility ( mi km ) Precip ( " mm )
12:20 am 00:20 Cloudy 52 11 46 8 82 82 VRB 6 9 30.44 1031 6 10 0.00 0.00
12:50 am 00:50 Cloudy 52 11 46 8 82 82 WSW 6 9 30.44 1031 6 10 0.00 0.00
1:20 am 01:20 Cloudy 52 11 46 8 82 82 VRB 3 6 30.44 1031 6 10 0.00 0.00
1:50 am 01:50 Cloudy 52 11 46 8 82 82 WSW 5 7 30.44 1031 6 10 0.00 0.00
2:20 am 02:20 Cloudy 52 11 46 8 82 82 VRB 3 6 30.44 1031 6 10 0.00 0.00
2:50 am 02:50 Mostly Cloudy 50 10 46 8 87 87 SSW 3 6 30.44 1031 6 10 0.00 0.00
3:20 am 03:20 Partly Cloudy 48 9 46 8 93 93 S 3 6 30.44 1031 6 10 0.00 0.00
3:50 am 03:50 Mostly Cloudy 48 9 46 8 93 93 SSW 5 7 30.44 1031 6 10 0.00 0.00
4:20 am 04:20 Partly Cloudy 46 8 45 7 93 93 VRB 5 7 30.44 1031 6 10 0.00 0.00
4:50 am 04:50 Mostly Cloudy 48 9 45 7 87 87 VRB 3 6 30.44 1031 6 10 0.00 0.00
5:20 am 05:20 Cloudy 48 9 46 8 93 93 SSW 5 7 30.44 1031 6 10 0.00 0.00
5:50 am 05:50 Cloudy 48 9 45 7 87 87 VRB 3 6 30.44 1031 6 10 0.00 0.00
6:20 am 06:20 Cloudy 48 9 45 7 87 87 VRB 3 6 30.47 1032 6 10 0.00 0.00
6:50 am 06:50 Cloudy 48 9 45 7 87 87 VRB 2 4 30.47 1032 6 10 0.00 0.00
7:20 am 07:20 Mostly Cloudy 46 8 43 6 87 87 VRB 1 2 30.47 1032 6 10 0.00 0.00
7:50 am 07:50 Partly Cloudy 45 7 43 6 93 93 VRB 2 4 30.47 1032 6 10 0.00 0.00
8:20 am 08:20 Mostly Sunny 45 7 43 6 93 93 VRB 3 6 30.47 1032 6 10 0.00 0.00
8:50 am 08:50 Mostly Sunny 45 7 43 6 93 93 VRB 2 4 30.47 1032 6 10 0.00 0.00
9:20 am 09:20 Mostly Sunny 46 8 43 6 87 87 VRB 3 6 30.47 1032 6 10 0.00 0.00
9:50 am 09:50 Mostly Sunny 48 9 43 6 81 81 VRB 2 4 30.47 1032 6 10 0.00 0.00
10:20 am 10:20 Mostly Sunny 48 9 43 6 81 81 VRB 2 4 30.50 1033 6 10 0.00 0.00
10:50 am 10:50 Mostly Sunny 48 9 43 6 81 81 VRB 2 4 30.50 1033 6 10 0.00 0.00
11:20 am 11:20 Mostly Sunny 52 11 45 7 76 76 VRB 2 4 30.50 1033 6 10 0.00 0.00
11:50 am 11:50 Mostly Sunny 54 12 45 7 71 71 VRB 2 4 30.50 1033 6 10 0.00 0.00
12:20 pm 12:20 Mostly Sunny 54 12 45 7 71 71 S 3 6 30.50 1033 6 10 0.00 0.00
12:50 pm 12:50 Mostly Sunny 54 12 45 7 71 71 SSW 3 6 30.50 1033 6 10 0.00 0.00
1:20 pm 13:20 Mostly Sunny 55 13 46 8 72 72 SSW 3 6 30.50 1033 6 10 0.00 0.00
1:50 pm 13:50 Mostly Sunny 55 13 45 7 67 67 VRB 3 6 30.50 1033 6 10 0.00 0.00
2:20 pm 14:20 Mostly Sunny 54 12 45 7 71 71 VRB 2 4 30.47 1032 6 10 0.00 0.00
2:50 pm 14:50 Mostly Sunny 54 12 45 7 71 71 VRB 2 4 30.47 1032 6 10 0.00 0.00
3:20 pm 15:20 Mostly Sunny 54 12 45 7 71 71 VRB 1 2 30.47 1032 6 10 0.00 0.00
3:50 pm 15:50 Mostly Sunny 50 10 45 7 82 82 VRB 2 4 30.47 1032 6 10 0.00 0.00
4:20 pm 16:20 Mostly Sunny 46 8 45 7 93 93 Calm 30.47 1032 6 10 0.00 0.00
4:50 pm 16:50 Mostly Clear 46 8 45 7 93 93 VRB 1 2 30.47 1032 6 10 0.00 0.00
5:20 pm 17:20 Clear 45 7 43 6 93 93 SSE 2 4 30.47 1032 5 8 0.00 0.00
5:50 pm 17:50 Clear with Patchy Fog 41 5 39 4 93 93 VRB 1 2 30.47 1032 6 9 0.00 0.00
6:20 pm 18:20 Clear with Patchy Fog 41 5 39 4 93 93 VRB 1 2 30.47 1032 5 8 0.00 0.00
6:50 pm 18:50 Clear with Mist and Fog 39 4 39 4 100 100 VRB 1 2 30.47 1032 1 1 0.00 0.00
7:20 pm 19:20 Clear with Fog 41 5 39 4 93 93 VRB 1 2 30.47 1032 0 1 0.00 0.00
7:50 pm 19:50 Clear with Fog 39 4 39 4 100 100 VRB 1 2 30.47 1032 1 1 0.00 0.00
8:20 pm 20:20 Mostly Clear 39 4 37 3 93 93 VRB 2 4 30.47 1032 3 5 0.00 0.00
8:50 pm 20:50 Clear 37 3 36 2 93 93 Calm 30.45 1031 1 2 0.00 0.00
9:20 pm 21:20 Clear 37 3 37 3 100 100 VRB 1 2 30.45 1031 1 1 0.00 0.00
9:50 pm 21:50 Clear 36 2 34 1 93 93 VRB 2 4 30.45 1031 1 1 0.00 0.00
10:20 pm 22:20 Clear 34 1 34 1 100 100 VRB 1 2 30.45 1031 6 10 0.00 0.00
10:50 pm 22:50 Clear 36 2 34 1 93 93 VRB 1 2 30.45 1031 6 10 0.00 0.00
11:20 pm 23:20 Clear 37 3 36 2 93 93 Calm 30.45 1031 6 10 0.00 0.00
11:50 pm 23:50 Clear 37 3 36 2 93 93 Calm 30.45 1031 3 5 0.00 0.00

Powered by AerisWeather